Flag for Germany Weather past 2 weeks in Löhne, North Rhine-Westphalia, Germany

Now
63 °F

Light rain. Fog.


Feels Like: 63 °F
Forecast: 59 / 80 °F
Wind: 2 mph from Northeast

Location: Bueckeburg

Current Time: Jul 25, 2014 at 11:53:09 AM

Latest Report: Jul 25, 2014 at 11:20 AM


Visibility: 3 mi

Pressure: 29.98 "Hg

Humidity: 94%

Dew point: 61 °F

Location of LöhneLocation

Historic Weather in Löhne — Graph

°F

Löhne temperature yesterday

Maximum temperature yesterday: 75 °F (at 12:20 PM)
Minimum temperature yesterday: 59 °F (at 5:20 AM)
Average temperature yesterday: 67 °F

Past Weeks' High & Low Weather Summary

 TemperatureHumidityPressure
High91 °F (Jul 19, 4:20 PM)100% (Jul 11, 12:20 AM)30.18 "Hg (Jul 11, 12:20 AM)
Low52 °F (Jul 12, 6:20 AM)28% (Jul 19, 4:20 PM)29.68 "Hg (Jul 13, 6:20 PM)
Average70 °F70%29.97 "Hg
* Reported Jul 10 10:20 AM — Jul 25 10:20 AM, Löhne, Weather by CustomWeather, © 2014

Note: Actual official high and low records may vary slightly from our data, if they occured in-between our weather recording intervals... More about our weather records

Advertising

Löhne weather history for previous 24 hours

 ConditionsComfort  
Time TempWeatherWind HumidityBarometerVisibility
10:20 AM
Jul 25
61 °FLight rain. Fog.2 mph94%29.98 "Hg3 mi
9:20 AM61 °FLight rain. Fog.5 mph100%29.98 "Hg2 mi
8:20 AM61 °FLight rain. Fog.6 mph94%29.98 "Hg2 mi
7:20 AM61 °FLight rain. Fog.3 mph94%30.01 "Hg2 mi
6:47 AM61 °FLight rain. Fog.2 mph94%30.01 "Hg2 mi
6:20 AM61 °FLight rain. Fog.9 mph94%29.98 "Hg2 mi
5:47 AM61 °FLight rain. Fog.7 mph94%30.01 "Hg2 mi
5:20 AM61 °FLight rain. Fog.5 mph94%30.01 "Hg3 mi
4:20 AM61 °FLight rain. Passing clouds.3 mph94%30.01 "Hg4 mi
3:20 AM61 °FLight rain. Mostly cloudy.2 mph94%30.01 "Hg5 mi
2:20 AM61 °FLight rain. Partly cloudy.2 mph94%30.04 "HgN/A
1:20 AM61 °FPassing clouds.3 mph94%30.04 "HgN/A
12:20 AM61 °FPassing clouds.2 mph88%30.04 "HgN/A
11:20 PM
Jul 24
61 °FPartly cloudy.No wind88%30.04 "HgN/A
10:20 PM61 °FLight rain. Broken clouds.2 mph94%30.07 "HgN/A
9:20 PM61 °FPartly sunny.8 mph88%30.07 "HgN/A
8:20 PM61 °FSprinkles. Partly sunny.6 mph94%30.04 "HgN/A
7:20 PM72 °FThundershowers. Partly sunny.13 mph57%30.04 "HgN/A
6:20 PM73 °FBroken clouds.8 mph53%30.01 "HgN/A
5:20 PM72 °FBroken clouds.9 mph57%30.01 "HgN/A
4:20 PM75 °FBroken clouds.17 mph50%30.01 "HgN/A
3:20 PM75 °FBroken clouds.17 mph50%30.01 "HgN/A
2:20 PM75 °FBroken clouds.17 mph47%30.01 "HgN/A
1:20 PM75 °FBroken clouds.15 mph47%30.01 "HgN/A
12:20 PM75 °FScattered clouds.13 mph50%30.04 "HgN/A
11:20 AM73 °FScattered clouds.9 mph53%30.04 "HgN/A
Weather by CustomWeather, © 2014

See weather overviewHow to use our weather pages